Time,TemperatureF,DewpointF,PressureIn,WindDirection,WindDirectionDegrees,WindSpeedMPH,WindSpeedGustMPH,Humidity,HourlyPrecipIn,Conditions,Clouds,dailyrainin,SoftwareType,DateUTC
2013-02-01 00:02:00,-999.0,-99.9,29.94,NE,42,7.0,9.0,-999,-99.99,,,-99.99,,2013-02-01 09:02:00,
2013-02-01 00:11:00,-999.0,-99.9,29.94,NE,44,7.0,11.0,-999,-99.99,,,-99.99,,2013-02-01 09:11:00,
2013-02-01 00:22:00,28.0,-99.9,29.94,ENE,57,6.0,11.0,-999,-99.99,,,-99.99,,2013-02-01 09:22:00,
2013-02-01 00:32:00,-999.0,-99.9,29.95,NE,54,8.0,9.0,-999,-99.99,,,-99.99,,2013-02-01 09:32:00,
2013-02-01 00:42:00,28.0,-99.9,29.95,NE,51,6.0,9.0,-999,-99.99,,,-99.99,,2013-02-01 09:42:00,
2013-02-01 00:52:00,-999.0,-99.9,29.95,ENE,58,8.0,9.0,-999,-99.99,,,-99.99,,2013-02-01 09:52:00,
2013-02-01 01:01:00,-999.0,-99.9,29.95,ENE,64,8.0,9.0,-999,-99.99,,,-99.99,,2013-02-01 10:01:00,
2013-02-01 01:11:00,-999.0,-99.9,29.95,ENE,63,8.0,10.0,-999,-99.99,,,-99.99,,2013-02-01 10:11:00,
2013-02-01 01:21:00,-999.0,-99.9,29.95,ENE,57,9.0,11.0,-999,-99.99,,,-99.99,,2013-02-01 10:21:00,
2013-02-01 01:32:00,-999.0,-99.9,29.95,ENE,67,9.0,11.0,-999,-99.99,,,-99.99,,2013-02-01 10:32:00,
2013-02-01 01:43:00,28.0,-99.9,29.95,ENE,68,8.0,11.0,-999,-99.99,,,-99.99,,2013-02-01 10:43:00,
2013-02-01 01:53:00,28.0,-99.9,29.96,ENE,66,10.0,12.0,-999,-99.99,,,-99.99,,2013-02-01 10:53:00,
2013-02-01 02:02:00,-999.0,-99.9,29.96,ENE,66,10.0,14.0,-999,-99.99,,,-99.99,,2013-02-01 11:02:00,
2013-02-01 02:11:00,-999.0,-99.9,29.96,ENE,64,9.0,11.0,-999,-99.99,,,-99.99,,2013-02-01 11:11:00,
2013-02-01 02:22:00,28.0,-99.9,29.96,ENE,69,10.0,12.0,-999,-99.99,,,-99.99,,2013-02-01 11:22:00,
2013-02-01 02:32:00,-999.0,-99.9,29.96,ENE,74,9.0,12.0,-999,-99.99,,,-99.99,,2013-02-01 11:32:00,
2013-02-01 02:42:00,28.0,-99.9,29.96,ENE,72,9.0,13.0,-999,-99.99,,,-99.99,,2013-02-01 11:42:00,
2013-02-01 02:53:00,-999.0,-99.9,29.96,ENE,74,8.0,11.0,-999,-99.99,,,-99.99,,2013-02-01 11:53:00,
2013-02-01 03:03:00,-999.0,-99.9,29.97,East,79,8.0,10.0,-999,-99.99,,,-99.99,,2013-02-01 12:03:00,
2013-02-01 03:12:00,-999.0,-99.9,29.97,ENE,70,5.0,9.0,-999,-99.99,,,-99.99,,2013-02-01 12:12:00,
2013-02-01 03:23:00,27.0,-99.9,29.97,ENE,69,5.0,9.0,-999,-99.99,,,-99.99,,2013-02-01 12:23:00,
2013-02-01 03:32:00,-999.0,-99.9,29.98,ENE,67,5.0,9.0,-999,-99.99,,,-99.99,,2013-02-01 12:32:00,
2013-02-01 03:42:00,-999.0,-99.9,29.97,NE,54,6.0,8.0,-999,-99.99,,,-99.99,,2013-02-01 12:42:00,
2013-02-01 03:52:00,27.0,-99.9,29.98,NE,52,6.0,8.0,-999,-99.99,,,-99.99,,2013-02-01 12:52:00,
2013-02-01 04:02:00,-999.0,-99.9,29.97,NE,52,7.0,10.0,-999,-99.99,,,-99.99,,2013-02-01 13:02:00,
2013-02-01 04:12:00,27.0,-99.9,29.97,NE,49,8.0,12.0,-999,-99.99,,,-99.99,,2013-02-01 13:12:00,
2013-02-01 04:22:00,-999.0,-99.9,29.96,NE,46,9.0,14.0,-999,-99.99,,,-99.99,,2013-02-01 13:22:00,
2013-02-01 04:33:00,-999.0,-99.9,29.96,NE,49,10.0,14.0,-999,-99.99,,,-99.99,,2013-02-01 13:33:00,
2013-02-01 04:43:00,-999.0,-99.9,29.96,NE,53,12.0,16.0,-999,-99.99,,,-99.99,,2013-02-01 13:43:00,
2013-02-01 04:53:00,-999.0,-99.9,29.96,ENE,57,10.0,14.0,-999,-99.99,,,-99.99,,2013-02-01 13:53:00,
2013-02-01 05:03:00,-999.0,-99.9,29.96,NE,51,7.0,10.0,-999,-99.99,,,-99.99,,2013-02-01 14:03:00,
2013-02-01 05:12:00,-999.0,-99.9,29.95,NE,47,10.0,14.0,-999,-99.99,,,-99.99,,2013-02-01 14:12:00,
2013-02-01 05:22:00,27.0,-99.9,29.95,NE,48,10.0,13.0,-999,-99.99,,,-99.99,,2013-02-01 14:22:00,
2013-02-01 05:33:00,-999.0,-99.9,29.95,NE,48,10.0,13.0,-999,-99.99,,,-99.99,,2013-02-01 14:33:00,
2013-02-01 05:42:00,27.0,-99.9,29.95,NE,51,9.0,12.0,-999,-99.99,,,-99.99,,2013-02-01 14:42:00,
2013-02-01 05:53:00,-999.0,-99.9,29.94,NE,55,10.0,14.0,-999,-99.99,,,-99.99,,2013-02-01 14:53:00,
2013-02-01 06:03:00,-999.0,-99.9,29.93,NE,54,11.0,13.0,-999,-99.99,,,-99.99,,2013-02-01 15:03:00,
2013-02-01 06:12:00,-999.0,-99.9,29.94,NE,56,11.0,13.0,-999,-99.99,,,-99.99,,2013-02-01 15:12:00,
2013-02-01 06:22:00,-999.0,-99.9,29.94,ENE,61,11.0,15.0,-999,-99.99,,,-99.99,,2013-02-01 15:22:00,
2013-02-01 06:33:00,-999.0,-99.9,29.93,ENE,58,12.0,15.0,-999,-99.99,,,-99.99,,2013-02-01 15:33:00,
2013-02-01 06:42:00,-999.0,-99.9,29.93,ENE,57,11.0,15.0,-999,-99.99,,,-99.99,,2013-02-01 15:42:00,
2013-02-01 06:52:00,27.0,-99.9,29.93,NE,55,9.0,13.0,-999,-99.99,,,-99.99,,2013-02-01 15:52:00,
2013-02-01 07:03:00,-999.0,-99.9,29.93,NE,56,11.0,14.0,-999,-99.99,,,-99.99,,2013-02-01 16:03:00,
2013-02-01 07:12:00,28.0,-99.9,29.92,NE,53,13.0,16.0,-999,-99.99,,,-99.99,,2013-02-01 16:12:00,
2013-02-01 07:22:00,-999.0,-99.9,29.93,ENE,59,14.0,18.0,-999,-99.99,,,-99.99,,2013-02-01 16:22:00,
2013-02-01 07:33:00,-999.0,-99.9,29.93,NE,55,12.0,16.0,-999,-99.99,,,-99.99,,2013-02-01 16:33:00,
2013-02-01 07:43:00,-999.0,-99.9,29.92,ENE,57,13.0,16.0,-999,-99.99,,,-99.99,,2013-02-01 16:43:00,
2013-02-01 07:53:00,-999.0,-99.9,29.92,ENE,58,14.0,18.0,-999,-99.99,,,-99.99,,2013-02-01 16:53:00,
2013-02-01 08:03:00,-999.0,-99.9,29.92,NE,56,13.0,17.0,-999,-99.99,,,-99.99,,2013-02-01 17:03:00,
2013-02-01 08:12:00,-999.0,-99.9,29.92,NE,55,14.0,19.0,-999,-99.99,,,-99.99,,2013-02-01 17:12:00,
2013-02-01 08:22:00,28.0,-99.9,29.91,NE,56,13.0,20.0,-999,-99.99,,,-99.99,,2013-02-01 17:22:00,
2013-02-01 08:32:00,-999.0,-99.9,29.91,ENE,65,16.0,20.0,-999,-99.99,,,-99.99,,2013-02-01 17:32:00,
2013-02-01 08:42:00,28.0,-99.9,29.91,ENE,60,13.0,19.0,-999,-99.99,,,-99.99,,2013-02-01 17:42:00,
2013-02-01 08:53:00,-999.0,-99.9,29.91,ENE,59,13.0,17.0,-999,-99.99,,,-99.99,,2013-02-01 17:53:00,
2013-02-01 09:03:00,-999.0,-99.9,29.91,ENE,60,12.0,18.0,-999,-99.99,,,-99.99,,2013-02-01 18:03:00,
2013-02-01 09:12:00,-999.0,-99.9,29.91,ENE,64,15.0,20.0,-999,-99.99,,,-99.99,,2013-02-01 18:12:00,
2013-02-01 09:23:00,28.0,-99.9,29.91,ENE,68,15.0,21.0,-999,-99.99,,,-99.99,,2013-02-01 18:23:00,
2013-02-01 09:33:00,-999.0,-99.9,29.91,ENE,60,15.0,20.0,-999,-99.99,,,-99.99,,2013-02-01 18:33:00,
2013-02-01 09:42:00,28.0,-99.9,29.91,ENE,61,14.0,19.0,-999,-99.99,,,-99.99,,2013-02-01 18:42:00,
2013-02-01 09:53:00,-999.0,-99.9,29.91,ENE,67,15.0,19.0,-999,-99.99,,,-99.99,,2013-02-01 18:53:00,
2013-02-01 10:03:00,-999.0,-99.9,29.90,ENE,60,17.0,24.0,-999,-99.99,,,-99.99,,2013-02-01 19:03:00,
2013-02-01 10:12:00,-999.0,-99.9,29.91,ENE,59,16.0,20.0,-999,-99.99,,,-99.99,,2013-02-01 19:12:00,
2013-02-01 10:22:00,29.0,-99.9,29.90,ENE,57,18.0,23.0,-999,-99.99,,,-99.99,,2013-02-01 19:22:00,
2013-02-01 10:33:00,-999.0,-99.9,29.90,ENE,57,17.0,21.0,-999,-99.99,,,-99.99,,2013-02-01 19:33:00,
2013-02-01 10:42:00,-999.0,-99.9,29.90,ENE,58,16.0,19.0,-999,-99.99,,,-99.99,,2013-02-01 19:42:00,
2013-02-01 10:52:00,29.0,-99.9,29.90,NE,55,15.0,21.0,-999,-99.99,,,-99.99,,2013-02-01 19:52:00,
2013-02-01 11:02:00,-999.0,-99.9,29.89,NE,56,13.0,18.0,-999,-99.99,,,-99.99,,2013-02-01 20:02:00,
2013-02-01 11:12:00,-999.0,-99.9,29.89,ENE,60,16.0,20.0,-999,-99.99,,,-99.99,,2013-02-01 20:12:00,
2013-02-01 11:22:00,-999.0,-99.9,29.88,ENE,61,17.0,21.0,-999,-99.99,,,-99.99,,2013-02-01 20:22:00,
2013-02-01 11:32:00,-999.0,-99.9,29.89,NE,54,15.0,20.0,-999,-99.99,,,-99.99,,2013-02-01 20:32:00,
2013-02-01 11:42:00,-999.0,-99.9,29.89,NE,53,14.0,20.0,-999,-99.99,,,-99.99,,2013-02-01 20:42:00,
2013-02-01 11:52:00,31.0,-99.9,29.89,NE,56,15.0,18.0,-999,-99.99,,,-99.99,,2013-02-01 20:52:00,
2013-02-01 12:02:00,-999.0,-99.9,29.89,ENE,58,13.0,18.0,-999,-99.99,,,-99.99,,2013-02-01 21:02:00,
2013-02-01 12:12:00,31.0,-99.9,29.89,NE,54,15.0,21.0,-999,-99.99,,,-99.99,,2013-02-01 21:12:00,
2013-02-01 12:22:00,-999.0,-99.9,29.88,ENE,58,16.0,22.0,-999,-99.99,,,-99.99,,2013-02-01 21:22:00,
2013-02-01 12:32:00,-999.0,-99.9,29.88,NE,54,15.0,21.0,-999,-99.99,,,-99.99,,2013-02-01 21:32:00,
2013-02-01 12:42:00,-999.0,-99.9,29.88,ENE,58,15.0,21.0,-999,-99.99,,,-99.99,,2013-02-01 21:42:00,
2013-02-01 12:53:00,31.0,-99.9,29.88,ENE,60,16.0,20.0,-999,-99.99,,,-99.99,,2013-02-01 21:53:00,
2013-02-01 13:03:00,-999.0,-99.9,29.87,NE,54,14.0,20.0,-999,-99.99,,,-99.99,,2013-02-01 22:03:00,
2013-02-01 13:11:00,-999.0,-99.9,29.87,NE,55,14.0,19.0,-999,-99.99,,,-99.99,,2013-02-01 22:11:00,
2013-02-01 13:22:00,31.0,-99.9,29.86,NE,52,16.0,19.0,-999,-99.99,,,-99.99,,2013-02-01 22:22:00,
2013-02-01 13:32:00,-999.0,-99.9,29.86,NE,46,13.0,21.0,-999,-99.99,,,-99.99,,2013-02-01 22:32:00,
2013-02-01 13:42:00,31.0,-99.9,29.86,NE,54,15.0,21.0,-999,-99.99,,,-99.99,,2013-02-01 22:42:00,
2013-02-01 13:52:00,-999.0,-99.9,29.85,NE,54,16.0,22.0,-999,-99.99,,,-99.99,,2013-02-01 22:52:00,
2013-02-01 14:02:00,-999.0,-99.9,29.85,NE,52,16.0,22.0,-999,-99.99,,,-99.99,,2013-02-01 23:02:00,
2013-02-01 14:11:00,-999.0,-99.9,29.84,NE,50,19.0,26.0,-999,-99.99,,,-99.99,,2013-02-01 23:11:00,
2013-02-01 14:22:00,32.0,-99.9,29.83,NE,52,19.0,26.0,-999,-99.99,,,-99.99,,2013-02-01 23:22:00,
2013-02-01 14:32:00,-999.0,-99.9,29.83,NE,42,15.0,22.0,-999,-99.99,,,-99.99,,2013-02-01 23:32:00,
2013-02-01 14:42:00,32.0,-99.9,29.83,NE,46,14.0,22.0,-999,-99.99,,,-99.99,,2013-02-01 23:42:00,
2013-02-01 14:52:00,-999.0,-99.9,29.83,NE,46,15.0,22.0,-999,-99.99,,,-99.99,,2013-02-01 23:52:00,
2013-02-01 15:02:00,32.0,-99.9,29.82,NE,48,15.0,22.0,-999,-99.99,,,-99.99,,2013-02-02 00:02:00,
2013-02-01 15:11:00,32.0,-99.9,29.81,NE,47,16.0,21.0,-999,-99.99,,,-99.99,,2013-02-02 00:11:00,
2013-02-01 15:22:00,32.0,-99.9,29.81,NE,49,14.0,21.0,-999,-99.99,,,-99.99,,2013-02-02 00:22:00,
2013-02-01 15:32:00,32.0,-99.9,29.80,NE,48,14.0,27.0,-999,-99.99,,,-99.99,,2013-02-02 00:32:00,
2013-02-01 15:42:00,33.0,-99.9,29.80,NE,55,17.0,22.0,-999,-99.99,,,-99.99,,2013-02-02 00:42:00,
2013-02-01 15:52:00,33.0,-99.9,29.80,NE,56,17.0,24.0,-999,-99.99,,,-99.99,,2013-02-02 00:52:00,
2013-02-01 16:03:00,33.0,-99.9,29.80,NE,51,17.0,22.0,-999,-99.99,,,-99.99,,2013-02-02 01:03:00,
2013-02-01 16:11:00,33.0,-99.9,29.79,NE,51,16.0,23.0,-999,-99.99,,,-99.99,,2013-02-02 01:11:00,
2013-02-01 16:22:00,33.0,-99.9,29.79,NE,48,14.0,19.0,-999,-99.99,,,-99.99,,2013-02-02 01:22:00,
2013-02-01 16:32:00,33.0,-99.9,29.78,NE,48,15.0,25.0,-999,-99.99,,,-99.99,,2013-02-02 01:32:00,
2013-02-01 16:42:00,33.0,-99.9,29.77,NE,50,15.0,22.0,-999,-99.99,,,-99.99,,2013-02-02 01:42:00,
2013-02-01 16:52:00,33.0,-99.9,29.77,NE,52,17.0,22.0,-999,-99.99,,,-99.99,,2013-02-02 01:52:00,
2013-02-01 17:01:00,33.0,-99.9,29.76,NE,53,16.0,22.0,-999,-99.99,,,-99.99,,2013-02-02 02:01:00,
2013-02-01 17:11:00,33.0,-99.9,29.75,NE,53,16.0,22.0,-999,-99.99,,,-99.99,,2013-02-02 02:11:00,
2013-02-01 17:22:00,33.0,-99.9,29.75,NE,53,14.0,22.0,-999,-99.99,,,-99.99,,2013-02-02 02:22:00,
2013-02-01 17:32:00,33.0,-99.9,29.75,NE,53,15.0,20.0,-999,-99.99,,,-99.99,,2013-02-02 02:32:00,
2013-02-01 17:42:00,33.0,-99.9,29.75,NE,54,16.0,22.0,-999,-99.99,,,-99.99,,2013-02-02 02:42:00,
2013-02-01 17:52:00,33.0,-99.9,29.74,NE,46,14.0,21.0,-999,-99.99,,,-99.99,,2013-02-02 02:52:00,
2013-02-01 18:02:00,33.0,-99.9,29.74,NE,45,15.0,21.0,-999,-99.99,,,-99.99,,2013-02-02 03:02:00,
2013-02-01 18:11:00,33.0,-99.9,29.74,NE,52,13.0,19.0,-999,-99.99,,,-99.99,,2013-02-02 03:11:00,
2013-02-01 18:22:00,33.0,-99.9,29.74,NE,49,14.0,19.0,-999,-99.99,,,-99.99,,2013-02-02 03:22:00,
2013-02-01 18:32:00,33.0,-99.9,29.73,ENE,57,13.0,23.0,-999,-99.99,,,-99.99,,2013-02-02 03:32:00,
2013-02-01 18:42:00,33.0,-99.9,29.74,ENE,65,15.0,21.0,-999,-99.99,,,-99.99,,2013-02-02 03:42:00,
2013-02-01 18:52:00,34.0,-99.9,29.73,ENE,59,15.0,21.0,-999,-99.99,,,-99.99,,2013-02-02 03:52:00,
2013-02-01 19:02:00,34.0,-99.9,29.73,ENE,62,13.0,21.0,-999,-99.99,,,-99.99,,2013-02-02 04:02:00,
2013-02-01 19:11:00,34.0,-99.9,29.73,ENE,57,16.0,20.0,-999,-99.99,,,-99.99,,2013-02-02 04:11:00,
2013-02-01 19:22:00,33.0,-99.9,29.73,NE,51,15.0,24.0,-999,-99.99,,,-99.99,,2013-02-02 04:22:00,
2013-02-01 19:33:00,32.0,-99.9,29.73,NE,56,16.0,22.0,-999,-99.99,,,-99.99,,2013-02-02 04:33:00,
2013-02-01 19:42:00,-999.0,-99.9,29.72,NE,52,19.0,25.0,-999,-99.99,,,-99.99,,2013-02-02 04:42:00,
2013-02-01 19:52:00,31.0,-99.9,29.72,NE,49,17.0,25.0,-999,-99.99,,,-99.99,,2013-02-02 04:52:00,
2013-02-01 20:03:00,-999.0,-99.9,29.72,NE,47,17.0,28.0,-999,-99.99,,,-99.99,,2013-02-02 05:03:00,
2013-02-01 20:12:00,-999.0,-99.9,29.71,NE,44,18.0,23.0,-999,-99.99,,,-99.99,,2013-02-02 05:12:00,
2013-02-01 20:22:00,31.0,-99.9,29.71,NE,40,16.0,27.0,-999,-99.99,,,-99.99,,2013-02-02 05:22:00,
2013-02-01 20:33:00,-999.0,-99.9,29.71,NE,39,15.0,23.0,-999,-99.99,,,-99.99,,2013-02-02 05:33:00,
2013-02-01 20:42:00,31.0,-99.9,29.70,NE,42,14.0,19.0,-999,-99.99,,,-99.99,,2013-02-02 05:42:00,
2013-02-01 20:52:00,-999.0,-99.9,29.70,NE,49,14.0,21.0,-999,-99.99,,,-99.99,,2013-02-02 05:52:00,
2013-02-01 21:02:00,-999.0,-99.9,29.70,NE,46,14.0,21.0,-999,-99.99,,,-99.99,,2013-02-02 06:02:00,
2013-02-01 21:12:00,-999.0,-99.9,29.69,NE,43,18.0,22.0,-999,-99.99,,,-99.99,,2013-02-02 06:12:00,
2013-02-01 21:22:00,32.0,-99.9,29.69,NE,51,16.0,23.0,-999,-99.99,,,-99.99,,2013-02-02 06:22:00,
2013-02-01 21:32:00,32.0,-99.9,29.69,NE,54,15.0,22.0,-999,-99.99,,,-99.99,,2013-02-02 06:32:00,
2013-02-01 21:42:00,32.0,-99.9,29.69,NE,50,13.0,21.0,-999,-99.99,,,-99.99,,2013-02-02 06:42:00,
2013-02-01 21:52:00,33.0,-99.9,29.69,NE,52,15.0,22.0,-999,-99.99,,,-99.99,,2013-02-02 06:52:00,
2013-02-01 22:02:00,33.0,-99.9,29.68,NE,53,17.0,21.0,-999,-99.99,,,-99.99,,2013-02-02 07:02:00,
2013-02-01 22:12:00,33.0,-99.9,29.67,NE,50,14.0,21.0,-999,-99.99,,,-99.99,,2013-02-02 07:12:00,
2013-02-01 22:21:00,32.0,-99.9,29.67,NE,53,13.0,20.0,-999,-99.99,,,-99.99,,2013-02-02 07:21:00,
2013-02-01 22:32:00,32.0,-99.9,29.67,NE,55,15.0,21.0,-999,-99.99,,,-99.99,,2013-02-02 07:32:00,
2013-02-01 22:42:00,32.0,-99.9,29.67,NE,54,14.0,20.0,-999,-99.99,,,-99.99,,2013-02-02 07:42:00,
2013-02-01 22:52:00,32.0,-99.9,29.67,NE,50,13.0,21.0,-999,-99.99,,,-99.99,,2013-02-02 07:52:00,
2013-02-01 23:01:00,33.0,-99.9,29.67,NE,48,16.0,20.0,-999,-99.99,,,-99.99,,2013-02-02 08:01:00,
2013-02-01 23:11:00,32.0,-99.9,29.67,NE,47,14.0,20.0,-999,-99.99,,,-99.99,,2013-02-02 08:11:00,
2013-02-01 23:21:00,32.0,-99.9,29.67,NE,52,11.0,20.0,-999,-99.99,,,-99.99,,2013-02-02 08:21:00,
2013-02-01 23:32:00,32.0,-99.9,29.67,NE,52,13.0,18.0,-999,-99.99,,,-99.99,,2013-02-02 08:32:00,
2013-02-01 23:42:00,33.0,-99.9,29.67,NE,49,13.0,17.0,-999,-99.99,,,-99.99,,2013-02-02 08:42:00,
2013-02-01 23:53:00,33.0,-99.9,29.67,NE,55,13.0,18.0,-999,-99.99,,,-99.99,,2013-02-02 08:53:00,